Location: Eastview
(35.0756°N, 88.5453°W)
Time: 18:30:33
(UTC+00:00)

Cosmos 2228 Rocket - Pass Details

Date: 22 November 2019
Orbit: 619 x 651 km, 82.5° (Epoch: 08 December)

Event Time Altitude Azimuth Distance (km) Brightness Sun altitude
Rises 23:18:27 0° 161° (SSE) 2,905 6.5 -7.2°
Reaches altitude 10° 23:20:52 10° 150° (SSE) 2,008 5.6 -7.7°
Maximum altitude 23:24:44 30° 90° (E) 1,152 3.9 -8.4°
Drops below altitude 10° 23:28:39 10° 30° (NNE) 2,038 5.3 -9.2°
Sets 23:31:08 0° 19° (NNE) 2,957 6.2 -9.7°
